Time[GMT],current_u[cm/s](10m),current_v[cm/s](10m),current_u[cm/s](14m),current_v[cm/s](14m),current_u[cm/s](18m),current_v[cm/s](18m),current_u[cm/s](22m),current_v[cm/s](22m),current_u[cm/s](26m),current_v[cm/s](26m),current_u[cm/s](30m),current_v[cm/s](30m),current_u[cm/s](34m),current_v[cm/s](34m),current_u[cm/s](38m),current_v[cm/s](38m),current_u[cm/s](42m),current_v[cm/s](42m),current_u[cm/s](46m),current_v[cm/s](46m),current_u[cm/s](50m),current_v[cm/s](50m),current_u[cm/s](54m),current_v[cm/s](54m),current_u[cm/s](58m),current_v[cm/s](58m),current_u[cm/s](62m),current_v[cm/s](62m),current_u[cm/s](66m),current_v[cm/s](66m),current_u[cm/s](70m),current_v[cm/s](70m),current_u[cm/s](74m),current_v[cm/s](74m),current_u[cm/s](78m),current_v[cm/s](78m),current_u[cm/s](82m),current_v[cm/s](82m),current_u[cm/s](86m),current_v[cm/s](86m),current_u[cm/s](90m),current_v[cm/s](90m)
2016-10-09 19:00,10.74,4.16,12.70,4.26,13.21,1.38,14.79,-0.95,15.68,-0.45,15.96,1.95,14.87,5.69,14.03,8.68,14.18,11.14,13.36,11.09,13.08,11.00,11.05,10.77,9.77,9.84,8.68,8.65,8.73,7.51,8.87,5.77,9.39,4.47,10.62,4.54,11.10,5.01,10.54,5.78,10.36,6.35
2016-10-09 20:00,-1.96,-2.09,0.03,-0.41,-0.72,-2.01,-0.90,-3.75,-0.68,-1.48,0.02,1.58,0.86,5.52,1.80,7.50,1.21,8.05,1.28,8.49,0.55,8.47,0.25,7.43,0.27,6.07,-0.94,5.58,-1.04,4.92,-1.72,4.07,-2.15,2.78,-2.15,2.15,-0.93,1.28,-0.99,1.78,-0.16,2.47
2016-10-09 21:00,-14.02,-3.43,-14.34,-1.11,-13.81,0.53,-12.57,1.24,-10.09,0.03,-6.05,-3.40,-1.80,-6.87,-0.46,-9.07,0.57,-7.06,2.46,-5.09,4.64,-3.35,7.18,-2.75,8.28,-2.60,8.32,-2.38,8.09,-2.67,8.09,-2.67,6.09,-3.62,5.38,-5.00,4.48,-6.13,4.27,-7.46,4.38,-6.48
2016-10-09 22:00,-8.08,-8.88,-6.31,-8.84,-4.73,-8.86,-3.23,-9.95,-3.10,-12.01,-3.51,-14.98,-3.05,-18.08,-2.15,-17.27,0.91,-15.67,2.69,-14.36,5.01,-13.41,6.30,-11.85,5.71,-10.98,4.95,-11.23,4.29,-10.49,3.02,-11.42,1.42,-12.35,-0.00,-12.49,-1.40,-13.04,-3.31,-13.65,2.60,-9.46
2016-10-09 23:00,-7.81,-9.42,-5.81,-8.78,-5.55,-10.90,-4.88,-10.37,-4.06,-10.95,-3.94,-13.64,-5.33,-18.50,-3.69,-21.65,-1.72,-23.22,-0.64,-24.98,0.90,-23.86,1.03,-23.29,0.71,-23.29,-0.11,-23.34,-2.61,-23.40,-4.40,-22.40,-5.93,-20.89,-6.58,-19.84,-7.23,-19.10,-7.53,-17.52,-8.36,-15.90
2016-10-10 00:00,-15.52,-13.87,-11.98,-11.80,-8.80,-12.89,-7.17,-14.04,-6.57,-16.58,-8.11,-20.64,-10.09,-24.63,-10.52,-26.24,-8.35,-27.44,-6.00,-29.21,-4.77,-29.13,-3.36,-27.95,-1.58,-27.27,-0.08,-28.37,1.17,-29.33,0.23,-29.00,-2.73,-27.64,-5.94,-26.77,-7.30,-24.48,-8.45,-22.54,-6.72,-16.11
2016-10-10 01:00,-17.07,-21.82,-11.75,-21.39,-9.03,-21.36,-10.86,-22.88,-11.53,-23.73,-11.80,-25.18,-11.84,-28.34,-9.85,-30.65,-5.59,-31.49,-2.73,-32.57,-0.45,-32.79,0.06,-32.10,-0.02,-31.18,-0.64,-30.54,-1.22,-31.04,-1.59,-29.90,-2.08,-29.32,-3.47,-28.92,-4.30,-27.30,-3.65,-26.04,-0.11,-18.40
2016-10-10 02:00,-28.14,-14.44,-26.36,-13.45,-22.77,-12.20,-20.02,-12.27,-15.85,-13.14,-10.39,-16.12,-7.70,-18.31,-7.86,-16.47,-7.20,-14.27,-7.00,-15.56,-5.35,-17.77,-3.56,-20.76,-1.71,-22.59,-2.31,-24.99,-3.08,-25.23,-3.66,-24.37,-5.04,-22.71,-4.58,-21.51,-3.22,-19.50,0.10,-19.39,1.08,-16.87
2016-10-10 03:00,-30.23,-4.29,-28.16,-3.84,-25.93,-2.61,-22.10,-2.12,-15.61,-1.41,-8.24,-1.16,-5.95,-0.43,-5.94,0.20,-4.75,-0.26,-5.17,-1.55,-4.85,-1.23,-3.94,-1.78,-3.99,-2.64,-4.44,-3.20,-4.36,-4.43,-3.70,-4.54,-2.87,-4.49,-1.46,-4.98,0.08,-3.86,2.33,-5.98,2.11,-7.93
2016-10-10 04:00,-24.88,-4.27,-22.98,-3.66,-20.19,-3.82,-17.98,-1.54,-10.27,0.92,-2.92,4.21,0.59,6.38,2.91,7.33,7.88,5.56,5.24,6.61,4.85,6.17,3.77,5.30,3.04,4.96,1.86,4.37,1.79,3.61,2.92,-1.59,3.84,3.43,6.23,2.51,9.97,2.97,11.54,2.32,11.57,-3.03
2016-10-10 05:00,-17.31,-1.01,-17.27,-0.47,-12.97,-0.15,-15.01,1.30,-13.65,3.31,-10.36,5.83,-5.40,8.04,-0.06,7.75,5.51,5.75,7.43,4.68,7.84,4.39,7.62,4.42,6.61,4.63,6.46,3.43,6.64,2.54,6.31,1.60,6.21,0.62,6.82,-0.97,8.12,-3.39,8.93,-6.60,2.46,2.15
2016-10-10 06:00,-19.94,0.98,-18.68,0.65,-16.93,1.74,-17.32,3.61,-15.90,5.74,-12.35,8.44,-9.03,8.88,-2.61,8.51,3.59,6.50,7.51,5.75,9.40,5.73,8.60,7.26,8.51,7.86,7.96,6.63,7.18,5.13,6.03,3.81,6.92,1.68,9.57,1.27,11.13,-0.02,13.22,0.34,9.68,-2.37
2016-10-10 07:00,-30.11,9.81,-28.29,11.34,-27.56,11.36,-27.28,13.13,-25.92,15.45,-23.60,16.72,-20.54,18.32,-16.90,19.07,-12.62,16.86,-8.15,13.36,-4.85,9.27,-1.40,6.37,-0.12,5.31,-0.13,4.68,-1.37,4.29,-1.92,3.06,-1.26,2.64,0.32,-4.31,1.86,1.75,2.98,0.21,0.19,-4.87
2016-10-10 08:00,-20.93,5.39,-20.19,6.68,-18.50,9.63,-15.88,11.62,-12.77,13.04,-7.67,13.19,-0.88,10.64,6.02,8.11,11.22,6.62,10.62,6.54,8.56,6.72,6.06,6.66,5.88,7.23,6.85,6.49,8.98,5.07,9.89,4.21,10.82,2.93,11.79,2.19,13.46,1.88,12.38,1.33,13.14,-8.61
2016-10-10 09:00,-20.83,-9.06,-21.59,-9.31,-20.07,-9.14,-19.50,-6.01,-18.54,-3.40,-16.04,-0.40,-12.38,0.98,-6.19,0.65,-0.44,-2.24,5.19,-7.37,7.41,-9.39,6.40,-9.19,3.81,-8.97,1.53,-8.75,1.64,-10.08,2.92,-11.77,4.17,-12.74,5.04,-14.14,7.74,-15.06,6.76,-15.27,6.16,-15.67
2016-10-10 10:00,-26.96,-8.60,-25.42,-6.54,-22.58,-4.58,-23.62,-4.92,-23.29,-3.34,-20.77,-1.69,-18.47,-0.33,-13.89,-0.23,-8.64,-0.55,-5.40,-4.14,-4.64,-6.83,-4.87,-7.12,-6.04,-7.39,-7.39,-6.45,-7.40,-7.08,-7.25,-8.19,-6.83,-9.53,-5.56,-9.54,-5.07,-10.43,-0.60,-9.64,-0.04,1.46
2016-10-10 11:00,-27.81,-30.29,-27.84,-27.88,-25.82,-25.35,-26.24,-24.01,-25.88,-20.86,-25.38,-18.49,-23.93,-16.45,-20.36,-16.47,-12.07,-16.45,-11.55,-18.07,-9.29,-21.23,-7.96,-24.06,-7.66,-25.33,-7.28,-22.58,-7.35,-21.03,-7.60,-20.59,-7.36,-21.35,-6.04,-26.80,-7.33,-26.69,-10.60,-20.39,-11.45,-17.09
2016-10-10 12:00,-17.34,-27.58,-15.45,-26.24,-16.10,-24.56,-16.12,-23.83,-15.24,-21.66,-14.21,-18.29,-11.90,-15.66,-9.47,-13.73,-3.94,-11.33,-1.91,-16.04,-1.11,-20.19,0.51,-21.99,3.67,-22.03,6.12,-21.14,6.25,-20.57,5.21,-20.28,3.66,-20.03,1.15,-19.05,0.11,-18.76,-2.44,-17.68,-0.25,-7.43
2016-10-10 13:00,-22.37,-38.11,-22.61,-36.71,-22.10,-34.03,-21.85,-32.17,-21.72,-29.29,-20.70,-25.92,-17.80,-24.15,-14.71,-22.64,-10.42,-21.28,-8.94,-23.64,-6.58,-25.09,-4.07,-26.07,-1.48,-26.93,0.41,-27.58,1.26,-22.69,1.24,-21.96,0.39,-21.29,2.29,-23.31,-6.31,-21.33,-4.31,-20.69,-1.96,-14.90
2016-10-10 14:00,-26.69,-39.38,-26.30,-38.31,-26.01,-35.59,-26.63,-32.33,-25.82,-28.29,-24.72,-24.16,-22.19,-21.57,-17.96,-19.38,-13.34,-19.06,-13.50,-21.52,-12.72,-22.64,-11.38,-21.58,-9.58,-19.64,-9.26,-19.33,-9.11,-17.50,-9.41,-16.23,-9.76,-16.13,-11.60,-14.30,-10.25,-12.93,-8.68,-13.27,-7.64,-11.57
2016-10-10 15:00,-16.94,-36.37,-17.63,-35.86,-17.32,-33.55,-17.40,-32.32,-17.73,-28.33,-16.42,-25.18,-13.72,-21.80,-9.57,-19.01,-4.19,-16.14,-2.46,-16.64,-3.47,-16.43,-4.65,-15.03,-5.01,-13.57,-2.09,-12.84,-0.52,-13.18,1.23,-12.41,1.96,-12.71,1.99,-12.49,3.17,-11.90,5.36,-10.88,1.94,3.14
2016-10-10 16:00,-10.30,-33.83,-10.00,-32.48,-8.49,-30.63,-8.99,-27.43,-8.91,-24.36,-8.02,-21.24,-3.22,-19.50,1.65,-19.63,4.51,-18.08,2.31,-16.79,3.64,-14.69,5.20,-13.98,7.63,-14.04,8.76,-14.63,9.32,-15.71,10.67,-16.01,10.85,-14.59,12.46,-12.40,15.52,-12.79,18.21,-12.98,18.10,-9.02
2016-10-10 17:00,-4.02,-24.58,-4.49,-24.74,-4.75,-22.61,-5.39,-17.99,-6.74,-14.75,-5.49,-11.09,-3.93,-8.08,-0.96,-6.19,2.59,-5.47,6.33,-6.69,9.24,-6.60,9.41,-5.81,9.00,-3.53,9.59,-2.08,10.09,-2.34,10.90,-3.56,11.96,-4.26,13.68,-3.72,15.34,-2.03,18.90,-3.31,26.87,6.27
2016-10-10 18:00,-4.65,-12.08,-4.37,-10.00,-4.07,-6.97,-4.51,-4.27,-4.14,-2.16,-4.14,0.15,-2.84,2.98,-0.11,5.95,4.79,8.67,8.50,9.22,8.19,7.55,7.00,10.32,6.16,11.62,5.84,11.63,6.58,9.97,7.34,7.91,9.34,5.92,12.00,3.20,14.42,2.50,14.43,2.82,10.45,15.93
2016-10-10 19:00,-2.76,-5.82,-3.50,-4.48,-3.43,-1.41,-1.55,2.23,-2.50,5.19,-1.50,8.97,1.01,11.97,4.33,14.71,7.36,16.41,10.22,17.33,13.02,18.74,14.46,18.16,14.25,18.51,13.42,18.46,13.23,18.08,14.17,17.12,15.17,13.66,16.48,12.50,16.87,10.95,18.78,9.25,20.23,6.67
2016-10-10 20:00,-8.24,-1.48,-8.17,1.28,-9.18,2.11,-7.80,5.70,-5.60,9.34,-4.58,12.71,-2.14,15.90,0.71,18.18,3.66,19.43,6.92,19.42,8.25,16.59,9.50,15.94,13.21,16.50,16.13,17.53,18.66,17.50,19.25,16.64,19.34,16.04,19.99,15.30,21.32,17.41,23.12,17.03,24.58,13.09
2016-10-10 21:00,-7.11,-6.99,-5.45,-5.62,-5.12,-4.36,-2.94,-2.62,-1.99,0.31,-1.53,4.13,0.14,6.13,2.67,8.09,5.66,9.57,8.00,9.80,10.13,10.69,13.02,11.19,15.31,10.24,18.21,9.70,21.30,8.27,23.48,6.02,23.16,3.40,21.46,1.18,19.67,-0.44,17.43,-1.99,5.20,3.44
2016-10-10 22:00,-13.35,-22.63,-12.04,-21.48,-11.14,-20.67,-10.20,-18.69,-9.34,-15.79,-7.16,-10.79,-4.40,-4.97,-2.70,-1.07,-0.62,0.96,0.54,0.28,2.44,0.57,4.88,0.82,7.91,-0.10,11.78,-1.07,13.05,-3.39,10.72,-4.98,8.90,-6.19,8.48,-6.85,8.39,-6.88,10.32,-9.30,10.67,-8.77
2016-10-10 23:00,-6.73,-19.36,-6.56,-18.57,-7.46,-17.08,-7.16,-16.04,-6.19,-14.47,-4.84,-12.78,-3.45,-10.23,-1.53,-5.74,1.87,-2.24,5.33,-0.92,6.93,0.64,8.61,0.96,11.43,1.02,14.88,1.07,15.31,0.06,12.36,-2.56,10.63,-4.69,9.80,-7.37,8.43,-10.64,6.76,-12.64,5.21,-10.72
2016-10-11 00:00,-10.97,-24.50,-12.22,-23.21,-11.61,-22.49,-11.62,-21.13,-10.48,-18.15,-9.17,-16.99,-7.53,-15.21,-5.84,-14.25,-2.23,-10.79,1.32,-8.40,2.93,-8.20,5.16,-7.28,6.97,-8.69,7.78,-10.22,7.05,-10.24,6.94,-10.90,6.80,-12.10,6.19,-13.14,6.76,-12.64,6.77,-12.01,6.07,-7.19
2016-10-11 01:00,-10.98,-20.51,-11.07,-19.59,-10.55,-18.90,-10.12,-16.98,-10.68,-16.53,-9.27,-15.35,-7.39,-13.69,-4.61,-11.86,-1.80,-9.81,1.67,-8.18,5.27,-7.97,5.00,-9.43,2.30,-10.81,0.93,-11.46,0.10,-11.83,0.69,-13.01,0.90,-13.36,0.85,-14.84,0.83,-13.80,2.05,-12.99,0.56,-8.01
2016-10-11 02:00,-14.92,-31.85,-16.08,-30.53,-15.69,-30.10,-15.61,-28.71,-14.79,-28.97,-14.26,-29.01,-12.71,-26.62,-10.53,-24.25,-8.02,-21.24,-4.61,-18.79,-2.46,-16.64,0.64,-16.49,1.37,-16.46,2.59,-17.33,3.02,-18.35,3.77,-19.06,3.55,-19.02,2.96,-18.16,2.10,-16.44,2.06,-14.35,3.66,-10.48
2016-10-11 03:00,-13.64,-27.97,-13.55,-27.94,-13.17,-28.45,-13.91,-26.80,-14.09,-26.23,-14.27,-25.34,-12.99,-24.09,-12.73,-23.59,-11.84,-23.41,-9.76,-23.37,-7.66,-22.39,-6.44,-21.26,-5.65,-21.12,-6.12,-20.95,-4.88,-20.24,-2.95,-20.36,-0.77,-20.61,0.32,-19.42,-1.34,-17.85,-3.35,-14.50,-4.95,-11.45
2016-10-11 04:00,-3.36,-20.07,-4.40,-19.77,-4.23,-19.30,-4.26,-19.21,-3.27,-18.36,-2.78,-17.26,-3.40,-15.67,-4.74,-14.42,-4.39,-14.21,-2.80,-13.59,-2.09,-12.53,-1.23,-12.25,0.63,-12.50,0.87,-13.89,0.11,-13.82,1.01,-12.69,1.72,-11.63,3.00,-10.06,2.62,-10.19,0.98,-7.67,-0.10,-5.60
2016-10-11 05:00,-1.00,-11.66,-1.90,-9.84,-2.61,-8.92,-3.12,-8.66,-2.45,-8.76,-2.01,-8.83,-2.80,-8.66,-3.45,-7.29,-2.89,-5.75,-2.49,-4.05,-2.72,-2.65,-1.36,-2.32,-0.82,-2.36,-1.19,-4.16,-0.73,-4.96,1.27,-4.32,4.03,-3.75,5.49,-3.07,7.33,-3.22,8.23,-2.10,9.70,-0.47
2016-10-11 06:00,-6.71,-2.67,-6.12,-0.90,-6.37,-1.09,-6.26,0.21,-5.08,1.11,-4.62,1.99,-4.99,2.82,-5.18,2.75,-6.37,3.53,-6.34,4.07,-6.80,4.86,-6.22,5.99,-6.55,7.36,-6.96,9.32,-4.64,10.27,-2.64,8.60,0.11,5.91,3.94,4.09,6.65,2.86,8.73,2.26,8.87,1.15
2016-10-11 07:00,-0.65,5.99,-0.68,6.08,-1.08,7.32,-1.65,9.13,-2.81,12.43,-5.00,14.68,-5.70,16.55,-6.22,18.17,-5.90,18.48,-5.21,18.28,-4.42,17.80,-3.24,18.38,-0.29,16.70,2.46,14.33,4.62,12.18,5.93,11.02,6.48,9.31,6.76,9.40,8.13,10.36,10.09,12.14,11.03,14.12
2016-10-11 08:00,3.81,10.77,4.66,10.72,5.96,10.93,5.28,12.39,3.78,16.43,4.25,20.88,4.45,21.57,5.45,20.74,6.89,19.20,8.60,17.44,7.99,18.71,5.49,18.65,2.06,17.87,0.71,16.18,-0.85,14.84,-1.68,14.47,-0.48,14.02,0.48,14.95,3.21,16.25,5.44,17.48,7.38,18.31
2016-10-11 09:00,2.82,7.62,2.68,9.04,1.89,8.89,0.91,9.32,0.11,10.85,-0.62,11.14,-1.56,11.78,-2.53,12.21,-3.38,12.88,-2.88,11.99,-3.24,11.14,-3.95,10.39,-3.79,10.23,-3.41,10.04,-3.05,8.89,-3.57,7.57,-3.06,5.64,-2.30,5.88,-2.17,5.82,-1.40,6.37,-1.11,7.41
2016-10-11 10:00,6.61,2.32,6.62,2.95,5.41,2.78,4.72,2.98,4.57,3.77,4.48,4.37,5.87,4.29,7.18,4.81,7.97,4.64,8.03,2.46,6.65,-1.45,4.27,-5.15,2.03,-9.01,2.99,-11.33,4.44,-10.97,5.61,-11.33,6.13,-10.33,6.14,-9.38,5.09,-7.72,3.52,-4.44,1.66,-1.25
2016-10-11 11:00,-0.01,-5.88,-0.06,-5.06,-0.30,-3.35,-1.96,-2.73,-2.66,-2.53,-2.25,-2.50,-1.36,-2.32,-0.18,-2.05,2.14,-3.10,4.57,-3.79,5.31,-5.13,4.54,-6.32,3.42,-7.10,1.76,-6.16,-0.62,-6.29,-1.57,-6.91,-1.45,-7.29,-0.73,-7.26,-1.04,-7.26,-1.34,-5.68,-1.31,-3.46
2016-10-11 12:00,-1.92,-13.73,-2.35,-13.03,-2.22,-12.78,-2.61,-11.54,-2.91,-9.96,-2.53,-10.15,-2.41,-10.53,-2.15,-10.03,-2.72,-9.58,-3.28,-9.13,-4.08,-7.60,-5.71,-6.13,-6.77,-5.42,-8.03,-4.45,-10.20,-3.89,-8.91,-4.00,-8.42,-5.21,-7.35,-6.23,-6.16,-6.69,-5.40,-6.45,-4.94,-5.57
2016-10-11 13:00,-6.51,-26.64,-6.59,-25.41,-7.52,-24.13,-8.00,-22.29,-8.33,-20.92,-9.09,-18.54,-10.22,-17.96,-11.26,-17.03,-12.92,-16.09,-14.28,-15.79,-16.55,-15.57,-18.01,-15.61,-17.86,-13.78,-17.88,-11.06,-17.74,-9.54,-17.58,-9.70,-16.06,-9.53,-13.26,-10.42,-10.13,-10.69,-7.99,-11.47,-7.03,-10.85
2016-10-11 14:00,-3.66,-28.67,-4.65,-26.89,-5.38,-25.23,-6.60,-23.73,-7.15,-22.01,-7.20,-18.57,-8.85,-14.37,-9.89,-11.76,-9.92,-9.04,-10.81,-6.91,-11.53,-5.99,-12.19,-3.58,-13.11,-1.35,-12.11,0.44,-10.81,0.33,-8.11,-1.22,-7.82,-3.44,-9.56,-5.25,-10.35,-5.40,-9.71,-5.09,-6.78,-3.42
2016-10-11 15:00,-19.25,-21.57,-17.77,-21.94,-15.49,-21.53,-12.93,-21.66,-11.71,-22.53,-11.05,-20.95,-11.22,-19.43,-11.16,-17.31,-12.79,-16.15,-13.02,-14.13,-13.95,-12.85,-14.15,-10.92,-13.65,-9.19,-13.28,-7.07,-12.60,-5.59,-12.86,-4.10,-11.39,-3.11,-10.53,-2.21,-6.64,-2.22,-1.58,-4.60,3.61,-1.79
2016-10-11 16:00,-25.17,-12.23,-22.43,-13.25,-19.26,-12.02,-15.88,-10.11,-14.58,-10.22,-13.61,-10.64,-12.39,-11.83,-11.86,-12.50,-10.79,-12.58,-9.75,-10.88,-7.83,-9.01,-7.77,-6.26,-7.88,-3.25,-7.91,-0.53,-6.58,0.21,-4.97,2.09,-3.84,4.13,-2.47,4.78,-0.06,5.12,2.57,3.13,5.61,3.79
2016-10-11 17:00,-15.13,-6.19,-12.24,-4.74,-8.72,-4.25,-7.61,-3.79,-7.29,-4.11,-6.39,-5.29,-6.20,-5.23,-4.54,-4.18,-3.50,-1.85,-2.11,1.01,-0.81,3.52,1.62,5.45,2.21,7.21,2.41,8.22,3.64,7.99,4.02,7.79,4.23,7.12,2.75,7.49,2.77,6.76,3.32,4.73,3.29,2.84
2016-10-11 18:00,-17.33,0.03,-15.43,0.32,-12.39,0.66,-8.73,2.67,-6.66,3.12,-4.83,2.97,-4.42,3.00,-4.47,3.82,-3.39,4.38,-2.62,4.94,-0.86,6.97,1.05,10.20,2.26,13.63,0.45,15.68,-1.72,15.93,-0.97,15.86,0.65,13.75,-0.61,14.40,2.65,14.07,2.85,12.46,2.60,10.59
2016-10-11 19:00,-10.13,3.80,-6.83,4.64,-4.20,5.59,-2.61,6.20,-1.24,7.16,0.11,8.85,0.75,9.48,1.99,9.87,3.46,11.18,5.00,12.30,6.28,13.87,5.03,17.46,3.79,19.37,4.02,19.97,4.93,19.42,4.77,19.26,3.87,17.82,1.75,15.25,0.76,14.73,0.79,14.95,1.15,13.49
2016-10-11 20:00,-6.81,11.47,-2.51,11.48,-0.44,12.56,1.34,13.23,2.79,12.96,3.61,12.70,4.91,12.59,6.68,12.63,7.29,13.35,6.77,14.65,6.80,17.50,6.48,19.81,5.66,22.07,4.76,23.56,3.73,24.18,2.13,25.24,1.34,25.73,1.92,26.54,4.08,25.03,4.83,24.32,5.12,21.79
2016-10-11 21:00,-2.63,11.55,-0.19,12.43,2.87,12.04,3.11,10.97,2.61,8.92,1.90,9.84,0.84,10.87,-0.22,12.53,-0.70,14.68,-0.14,16.54,1.74,17.25,1.85,18.54,3.25,19.41,2.74,19.03,0.16,20.21,-2.77,20.85,-3.52,21.55,-2.92,21.32,-1.44,20.95,-0.75,20.44,-1.30,19.53
2016-10-11 22:00,-2.62,7.56,-1.18,8.97,0.18,9.30,0.68,8.40,0.87,6.47,0.71,5.68,0.24,6.16,-1.33,7.13,-2.45,8.67,-1.55,9.48,-0.44,10.25,-0.63,10.19,-1.58,12.20,-4.01,13.21,-6.34,13.62,-8.35,14.34,-9.56,14.16,-9.97,13.82,-7.96,13.42,-6.22,12.92,-6.09,11.18
2016-10-11 23:00,0.19,4.99,0.76,4.86,0.14,3.19,-0.91,3.17,-2.12,4.68,-1.75,6.47,0.47,6.76,1.45,6.97,1.85,6.36,1.05,8.21,-0.44,9.94,-1.83,10.33,-2.97,10.28,-5.99,11.53,-7.39,10.97,-7.64,10.79,-6.92,12.49,-6.36,11.72,-4.48,10.43,-3.33,8.80,-2.68,5.44
2016-10-12 00:00,5.18,-5.38,2.32,-6.29,-0.50,-6.67,-0.96,-6.19,-1.67,-7.25,-2.96,-6.19,-3.20,-3.12,-3.40,-1.19,-2.42,-0.98,-1.47,-0.99,-3.26,0.01,-5.00,-0.44,-6.73,0.37,-8.41,0.04,-8.73,-0.27,-8.22,0.42,-9.26,0.72,-8.22,0.11,-7.59,-0.22,-6.04,-0.14,-4.56,-0.83
2016-10-12 01:00,-10.94,-17.35,-10.93,-19.02,-10.48,-20.77,-10.06,-20.11,-7.50,-17.61,-5.30,-16.60,-6.53,-16.05,-9.19,-16.58,-10.70,-15.49,-12.19,-16.07,-12.81,-15.11,-11.66,-13.80,-10.25,-12.61,-9.59,-13.03,-9.16,-14.05,-9.65,-15.15,-9.93,-17.23,-10.02,-18.94,-8.93,-20.69,-7.67,-21.34,-6.39,-22.40
2016-10-12 02:00,-10.56,-27.09,-10.95,-27.53,-12.46,-27.07,-13.22,-27.00,-14.72,-28.21,-16.30,-28.51,-16.35,-26.74,-14.81,-25.62,-13.19,-25.10,-10.36,-23.46,-8.21,-19.00,-6.61,-15.13,-7.58,-14.07,-9.81,-12.68,-11.76,-11.84,-13.23,-10.52,-13.66,-9.50,-11.17,-8.08,-10.59,-6.95,-10.67,-8.65,-11.01,-10.55
2016-10-12 03:00,-10.98,-30.06,-12.83,-28.87,-14.17,-27.30,-13.61,-27.75,-13.16,-27.19,-10.20,-25.93,-6.21,-25.28,-2.27,-24.45,-0.31,-21.41,0.18,-18.00,-2.74,-14.10,-4.87,-12.37,-6.83,-12.47,-8.38,-12.23,-7.62,-12.30,-3.52,-10.68,-1.29,-11.43,-1.54,-11.62,-1.80,-12.12,-2.50,-12.55,-2.11,-13.79
2016-10-12 04:00,-12.98,-25.45,-12.45,-24.13,-12.82,-23.30,-12.42,-23.59,-10.83,-22.98,-7.68,-24.28,-4.30,-24.36,-2.99,-23.52,-1.01,-19.22,-0.03,-15.02,-0.11,-13.47,-1.84,-12.97,-2.47,-12.65,-2.37,-12.30,-1.41,-11.37,0.70,-11.74,1.84,-12.01,1.38,-12.89,0.78,-13.29,0.71,-13.42,2.00,-13.85
2016-10-12 05:00,-3.19,-19.28,-5.51,-17.92,-7.18,-14.99,-8.64,-12.73,-9.88,-13.44,-9.44,-15.82,-9.14,-17.09,-7.34,-17.14,-5.54,-17.51,-2.53,-14.77,0.30,-10.82,1.88,-6.54,1.95,-3.47,1.97,-1.89,0.07,-1.87,-0.20,-1.01,0.37,-0.83,1.38,-0.71,0.52,-0.99,-0.50,-1.73,0.51,-2.25
2016-10-12 06:00,-6.29,-6.94,-6.73,-6.56,-7.19,-5.76,-6.91,-3.99,-7.42,-1.74,-6.04,0.17,-3.65,-0.74,0.29,0.09,4.33,1.91,7.24,4.94,7.95,8.63,6.67,10.00,6.17,12.25,7.47,13.09,10.10,13.09,11.25,14.09,11.24,13.14,10.63,12.42,11.82,11.33,11.24,10.83,11.20,9.98
2016-10-12 07:00,-7.64,-1.39,-7.24,-2.31,-6.44,-1.85,-3.84,-0.80,-1.20,0.14,0.18,2.05,2.11,3.93,4.39,4.34,8.52,6.18,12.20,11.45,13.58,15.67,13.44,17.41,15.52,18.81,17.73,19.10,20.05,19.41,19.92,19.16,20.58,19.06,21.02,18.67,21.48,17.56,21.50,16.52,21.40,16.49
2016-10-12 08:00,-1.11,7.41,-1.04,7.54,0.69,6.73,3.87,8.58,5.75,11.91,6.45,14.65,6.99,14.62,7.75,14.54,10.79,14.88,13.43,16.15,15.93,16.53,20.28,17.70,21.87,18.95,21.70,19.84,21.68,20.88,21.94,21.70,23.75,21.96,24.03,24.04,22.77,25.01,22.56,25.68,21.47,24.49
2016-10-12 09:00,-5.70,8.99,-4.21,9.26,-2.89,11.68,-3.52,13.68,-0.51,14.11,-0.05,15.62,1.93,17.31,3.59,18.36,5.39,18.62,6.61,19.74,7.67,21.03,8.55,22.88,9.25,23.00,11.63,24.39,13.85,24.36,15.94,25.03,15.66,24.94,15.21,26.69,16.22,26.80,17.77,26.87,17.17,24.80
2016-10-12 10:00,-9.13,8.21,-8.72,10.55,-7.79,11.58,-5.83,11.68,-3.23,14.08,-0.59,15.35,0.08,15.87,1.82,18.64,3.78,21.36,4.59,22.14,4.72,20.40,6.49,20.13,8.62,21.02,10.26,20.49,10.83,20.67,10.15,21.82,11.04,22.31,12.88,22.48,14.89,21.44,16.17,20.70,16.99,20.43
2016-10-12 11:00,-6.67,0.50,-6.19,0.33,-4.70,-1.39,-3.13,2.25,-3.14,3.93,-1.63,3.78,0.11,6.23,0.52,8.25,0.06,9.68,0.99,10.71,2.88,10.37,5.87,11.53,7.50,13.00,6.66,13.99,6.93,14.81,6.97,15.98,6.55,15.32,7.81,14.67,7.95,13.56,8.05,13.59,9.93,12.30
2016-10-12 12:00,-11.24,-5.90,-10.52,-6.82,-8.40,-6.25,-5.90,-6.50,-3.62,-6.09,-3.46,-3.31,-2.82,-2.68,-2.34,-2.53,0.07,-2.18,0.39,-1.87,1.44,-1.22,1.79,-1.32,1.33,-0.21,-0.26,-0.82,-1.84,-0.48,-2.37,0.19,-2.32,-0.63,-2.61,-1.36,-2.04,-1.49,-0.63,-2.62,0.46,-3.74
2016-10-12 13:00,-20.64,-8.69,-20.03,-8.28,-18.40,-7.13,-14.79,-9.23,-12.02,-10.35,-11.41,-8.99,-9.53,-8.61,-6.36,-10.01,-4.15,-10.35,-3.93,-10.39,-3.80,-10.45,-3.64,-9.98,-4.11,-9.81,-4.26,-9.34,-5.05,-8.85,-5.26,-8.19,-5.61,-8.40,-4.62,-9.87,-3.49,-10.45,-3.65,-11.24,-3.29,-12.39
2016-10-12 14:00,-20.94,-24.84,-22.44,-26.37,-21.96,-25.59,-21.03,-24.24,-20.03,-23.40,-19.46,-22.90,-15.76,-20.67,-12.80,-19.10,-10.29,-18.40,-8.72,-16.43,-7.96,-16.50,-7.39,-16.32,-7.55,-16.79,-7.07,-16.32,-5.43,-16.22,-5.00,-15.24,-4.44,-13.07,-4.84,-12.15,-5.39,-13.37,-5.08,-13.69,-4.69,-15.25
2016-10-12 15:00,-23.17,-23.45,-22.26,-24.32,-19.84,-25.33,-16.71,-25.91,-13.92,-25.12,-11.79,-23.92,-10.08,-24.32,-7.92,-25.51,-5.95,-27.09,-4.25,-25.82,-2.49,-23.78,-0.73,-22.38,-0.44,-21.66,0.16,-21.89,0.75,-20.44,1.43,-18.96,2.23,-18.81,1.36,-19.72,0.71,-20.98,0.17,-21.57,-0.01,-20.37
2016-10-12 16:00,-19.26,-29.45,-18.07,-27.91,-17.08,-27.07,-16.86,-27.74,-14.63,-28.81,-12.05,-29.67,-8.99,-30.06,-6.97,-30.46,-4.55,-31.47,-3.24,-30.64,-3.04,-29.63,-4.56,-27.80,-4.50,-25.37,-3.84,-25.47,-3.38,-26.59,-3.15,-25.99,-3.72,-23.86,-3.49,-20.64,-1.41,-18.61,0.29,-17.02,1.94,-16.28
2016-10-12 17:00,-13.42,-25.38,-13.47,-26.55,-12.92,-28.58,-11.58,-29.83,-9.94,-30.04,-8.70,-29.96,-6.45,-29.46,-6.26,-29.71,-4.54,-28.21,-2.11,-28.59,-1.10,-29.11,-1.34,-28.03,-2.23,-26.22,-2.72,-25.01,-2.43,-24.60,-3.62,-23.51,-2.90,-21.50,-1.35,-19.12,1.92,-18.18,5.13,-16.42,6.44,-15.90
2016-10-12 18:00,-12.60,-6.23,-12.03,-8.67,-12.59,-12.20,-12.57,-13.25,-11.63,-13.89,-9.28,-15.66,-6.46,-17.91,-4.76,-20.62,-3.04,-20.39,-0.91,-19.18,1.58,-19.75,2.66,-19.20,3.52,-18.61,3.91,-18.17,3.96,-16.69,4.73,-15.49,4.77,-14.96,4.51,-13.15,4.70,-10.78,6.78,-9.07,10.31,-7.63
2016-10-12 19:00,-2.68,-2.12,-1.83,-2.16,-0.12,-4.55,1.03,-5.86,3.19,-5.39,4.24,-4.42,4.87,-2.75,4.66,-1.77,4.26,-0.53,4.62,0.00,6.02,0.56,5.17,1.23,4.11,2.26,3.96,2.73,3.81,3.84,5.43,4.04,6.98,4.43,9.86,4.30,13.65,4.25,17.39,6.70,18.09,7.45
2016-10-12 20:00,-1.61,0.43,-0.34,0.42,2.09,0.35,5.00,-1.87,5.88,-2.64,7.40,-2.47,8.03,-2.47,8.24,-0.83,9.64,2.34,11.41,4.69,12.46,5.03,11.83,5.03,9.49,5.44,9.43,5.63,10.80,6.28,12.95,6.44,13.75,7.22,15.73,7.96,15.99,8.78,15.85,7.58,14.80,7.56
2016-10-12 21:00,2.55,4.17,0.60,2.71,0.70,3.06,1.30,2.51,1.58,-0.02,2.86,-1.71,3.96,-2.20,5.68,-1.34,7.34,0.35,8.11,1.22,7.87,2.30,7.41,3.10,6.64,4.85,6.92,7.25,6.81,7.95,8.14,8.37,9.66,8.54,11.10,7.64,13.82,7.03,16.22,7.38,15.66,7.83
2016-10-12 22:00,4.05,7.38,4.00,8.52,4.68,7.69,3.98,6.94,2.66,5.47,3.14,3.31,4.84,2.91,6.50,3.96,7.66,5.28,7.09,5.73,6.03,9.06,4.22,10.79,4.38,10.95,3.97,11.24,5.86,10.58,8.68,10.64,12.06,10.57,15.77,11.75,18.31,12.35,20.51,13.37,21.81,14.20
2016-10-12 23:00,-0.35,2.41,-1.58,2.33,-0.76,2.38,-1.75,1.86,-1.82,1.10,-1.38,0.71,0.06,2.43,0.93,3.66,0.52,3.31,1.25,3.65,1.66,4.00,1.21,3.43,1.67,4.31,3.95,4.72,8.84,5.86,15.10,5.97,17.95,4.26,17.69,3.44,17.42,1.99,18.03,0.08,16.77,0.73
2016-10-13 00:00,-0.33,-8.82,-3.16,-9.51,-3.89,-9.53,-4.11,-10.13,-4.95,-10.82,-5.75,-11.60,-4.18,-10.57,-2.19,-7.94,-0.66,-4.51,-0.99,-3.47,-1.49,-2.89,-1.46,-2.99,0.16,-4.46,1.55,-5.17,5.13,-4.24,9.54,-3.57,11.99,-2.37,12.90,-2.92,14.03,-5.49,14.92,-7.94,14.64,-10.02
2016-10-13 01:00,-7.98,-15.77,-8.98,-16.93,-8.72,-18.74,-9.48,-19.30,-10.42,-20.96,-10.24,-21.53,-8.11,-20.96,-3.57,-19.40,-1.16,-16.43,-1.51,-16.65,-1.01,-16.91,0.11,-16.45,0.25,-17.56,-0.43,-19.03,-1.88,-21.07,-1.50,-23.26,-0.39,-25.11,0.90,-26.17,0.27,-25.84,-1.46,-24.71,-1.92,-24.23
2016-10-13 02:00,-18.48,-28.26,-17.62,-29.98,-18.00,-29.78,-17.60,-28.71,-15.84,-26.68,-13.91,-26.80,-11.22,-28.98,-10.62,-31.84,-10.38,-32.28,-10.26,-30.67,-11.73,-29.67,-12.01,-29.13,-12.91,-27.95,-14.39,-26.95,-16.72,-26.22,-18.63,-27.46,-20.43,-27.09,-21.08,-26.04,-22.24,-25.36,-21.79,-24.48,-20.60,-23.26
2016-10-13 03:00,-6.31,-36.13,-5.29,-37.38,-6.12,-38.06,-5.85,-39.24,-5.25,-39.15,-5.15,-39.12,-4.87,-36.72,-4.71,-34.57,-2.45,-33.43,-0.45,-32.79,0.49,-33.43,0.53,-34.89,1.13,-35.43,-0.08,-35.93,-2.26,-35.68,-3.83,-34.39,-4.38,-33.62,-6.51,-33.88,-7.42,-33.97,-8.89,-34.96,-10.39,-33.23
2016-10-13 04:00,-6.28,-43.15,-6.58,-44.19,-6.42,-44.35,-6.91,-42.83,-7.44,-39.85,-6.79,-36.60,-6.73,-36.47,-7.61,-36.33,-9.15,-35.46,-11.59,-36.03,-13.04,-35.44,-13.38,-32.09,-12.79,-30.64,-14.02,-30.09,-15.87,-29.21,-17.78,-30.13,-18.80,-30.88,-19.80,-30.04,-21.00,-29.27,-21.87,-28.18,-20.62,-24.85
2016-10-13 05:00,-5.41,-44.24,-5.47,-44.05,-7.60,-42.94,-7.90,-41.68,-8.34,-40.97,-8.11,-40.69,-8.73,-39.74,-9.60,-38.02,-10.61,-35.51,-11.82,-33.69,-12.93,-33.83,-14.19,-34.13,-14.45,-34.32,-13.27,-33.73,-11.35,-31.86,-11.59,-31.10,-12.85,-30.45,-12.93,-29.21,-11.24,-28.26,-10.52,-28.87,-9.37,-27.55
2016-10-13 06:00,-12.09,-32.83,-16.04,-30.31,-17.69,-28.11,-16.42,-24.87,-16.84,-23.22,-17.30,-25.05,-17.46,-27.20,-17.44,-28.56,-18.45,-28.04,-19.62,-25.68,-22.23,-24.41,-25.00,-23.62,-24.19,-24.52,-21.16,-24.49,-18.90,-25.98,-16.92,-26.92,-14.96,-27.13,-13.35,-27.25,-12.84,-27.51,-11.88,-26.25,-10.21,-23.94